Location: Bishausen
(51.6334°N, 9.9631°E)
Time: 12:47:43
(UTC+00:00)

Cosmos 1300 Rocket - Pass Details

Date: 23 May 2024
Orbit: 597 x 624 km, 82.5° (Epoch: 13 June)

Event Time Altitude Azimuth Distance (km) Brightness Sun altitude
Rises 01:09:52 0° 349° (N) 2,878 7.9 -13.6°
Reaches altitude 10° 01:12:06 10° 350° (N) 1,966 6.9 -13.4°
Maximum altitude 01:16:27 85° 78° (ENE) 612 3.5 -13.1°
Enters shadow 01:20:26 12° 169° (SSE) 1,812 5.5 -12.8°
